Location: Sternwarte Stuttgart
(48.7670°N, 9.1830°E)
Time: 03:59:32
(UTC+02:00)

Daily predictions for brighter satellites

Satellite Brightness Start Highest point End
(mag) Time Altitude Azimuth Time Altitude Azimuth Time Altitude Azimuth
Cosmos 1125 Rocket 4.0 00:04:18 37° SE 00:05:19 41° ESE 00:10:13 10° NE
ATLAS CENTAUR R/B 1.2 00:10:15 55° E 00:10:15 55° E 00:13:41 10° NE
Cosmos 1607 3.9 00:06:38 24° SSW 00:10:41 73° SE 00:17:11 10° NE
COSMOS 2487 4.4 00:09:36 10° N 00:12:09 19° ENE 00:12:53 18° ENE
Cosmos 1821 Rocket 4.2 00:08:30 10° N 00:14:53 64° ENE 00:17:36 35° SE
Cosmos 2366 rocket 4.2 00:09:53 10° NNW 00:16:00 63° W 00:18:59 31° SSW
Cosmos 2181 Rocket 4.3 00:16:13 24° SSW 00:19:54 61° WNW 00:25:59 10° N
Cosmos 1943 Rocket 3.3 00:18:04 10° WSW 00:23:21 41° NW 00:28:39 10° NNE
Spot 4 3.9 00:30:35 48° S 00:31:53 75° WSW 00:36:46 10° NNW
Cosmos 1867 3.6 00:28:40 23° SW 00:32:12 78° NW 00:37:43 10° NE
Cosmos 1656 Rocket 3.6 00:30:08 35° SSW 00:32:33 87° WNW 00:38:09 10° NNE
ISS -2.9 00:29:22 10° W 00:32:40 50° N 00:35:59 10° ENE
Cosmos 1975 4.2 00:36:58 10° NNW 00:40:24 28° W 00:41:09 26° WSW
Cosmos 1048 Rocket 4.4 00:36:19 10° NNW 00:41:27 51° WSW 00:42:47 41° SSW
Cosmos 1733 4.1 00:40:00 10° N 00:43:33 37° ENE 00:43:52 36° E
Cosmos 2369 Rocket 2.9 00:40:29 16° SW 00:44:49 50° NW 00:50:21 10° NNE
Cosmos 724 4.4 00:44:33 41° S 00:46:40 65° ESE 00:52:53 10° NE
Cosmos 2344 4.3 00:38:45 10° NW 00:47:55 84° SW 00:56:38 23° SE
ALOS 2 2.5 00:47:43 62° S 00:48:27 87° W 00:52:52 10° NNW
BREEZE-M DEB (TANK) 4.1 00:37:24 10° WNW 00:51:21 56° SW 00:52:48 43° S
SeaSat 1 4.2 00:48:49 10° ENE 00:52:07 18° ESE 00:52:11 18° ESE
Okean 3 3.3 00:51:44 69° SSE 00:52:12 82° E 00:56:26 10° NNE
SL-27 R/B 3.6 00:50:30 10° NW 00:53:01 33° W 00:53:01 33° W
RESURS DK-1 3.6 00:50:02 10° NW 00:53:36 29° WSW 00:53:36 29° WSW
Lacrosse 5 2.0 00:54:17 50° SE 00:54:30 51° SE 00:59:26 10° ENE
Cosmos 1356 Rocket 3.5 00:52:56 10° NNW 00:57:13 69° W 00:57:43 62° SW
NOSS 2-1 (E) 4.1 00:53:05 10° NW 00:58:01 86° SW 01:00:42 37° SE
Nimbus 7 Rocket 4.5 00:53:25 10° NNE 00:59:17 64° ESE 01:01:10 43° SSE
Cosmos 1269 Rocket 4.0 00:56:14 10° NNW 01:01:33 77° ENE 01:03:10 46° SE
Nadezhda 3 Rocket 4.0 00:59:44 39° SSW 01:02:15 77° W 01:08:28 10° N
Cosmos 1300 Rocket 3.5 00:57:54 10° N 01:02:19 77° E 01:02:55 63° SE
USA 215 3.7 01:04:50 10° ESE 01:11:16 63° NNE 01:17:43 10° NW
Thor Agena Rocket 3.7 01:09:07 10° NNE 01:14:22 65° ESE 01:15:40 48° SSE
Sich 1 Rocket 3.6 01:11:29 10° NNW 01:16:01 70° W 01:16:39 60° SSW
COSMOS 2455 3.1 01:12:18 10° NNW 01:18:19 66° NE 01:21:45 26° SE
Cosmos 1805 3.2 01:14:31 10° NNW 01:18:24 71° W 01:18:27 71° WSW
Cosmos 1726 3.7 01:16:57 10° NNE 01:20:05 25° ENE 01:20:43 24° E
Cosmos 1605 Rocket 4.1 01:14:49 10° N 01:21:07 72° E 01:23:40 38° SSE
Cosmos 1378 4.0 01:22:00 37° W 01:22:17 38° WNW 01:25:48 10° N
Cosmos 1066 Rocket 4.3 01:22:33 42° SSW 01:24:31 71° WNW 01:30:07 10° N
COBE Rocket 4.4 01:26:12 42° SW 01:27:19 50° W 01:32:22 10° NNW
Okean 2 Rocket 2.9 01:23:13 10° NNW 01:27:37 75° W 01:28:09 65° SSW
Meteor 1-15 Rocket 4.4 01:22:37 10° NNW 01:28:18 66° W 01:30:02 44° SSW
Cosmos 2151 Rocket 3.5 01:25:08 10° N 01:29:40 89° E 01:30:21 64° S
Cosmos 2227 Rocket 3.2 01:28:06 10° NNW 01:33:30 43° NE 01:37:44 16° ESE
Cosmos 44 Rocket 4.3 01:30:09 10° NW 01:34:47 33° WSW 01:34:54 33° WSW
SAR-Lupe-2 4.5 01:31:57 10° N 01:35:20 39° WNW 01:35:36 38° W
Cosmos 2297 Rocket 2.7 01:30:11 10° NNW 01:35:47 56° ENE 01:39:09 24° SE
PSLV R/B 3.6 01:31:42 10° NNE 01:35:59 59° E 01:36:26 55° SE
EO 1 Delta rocket 4.3 01:34:38 43° SSE 01:36:34 84° E 01:43:17 10° N
Cosmos 1766 3.3 01:33:00 10° NNW 01:36:55 64° W 01:36:58 64° W
Cosmos 1656 4.5 01:40:31 31° SE 01:41:43 35° ESE 01:46:41 10° NE
Timation 2 Rocket 4.3 01:39:45 10° NNW 01:45:40 59° NE 01:49:54 20° SE
COSMOS 2487 3.9 01:44:01 10° NW 01:46:11 27° WNW 01:46:11 27° WNW
ATLAS CENTAUR R/B 3.4 01:46:20 11° W 01:49:07 22° NW 01:52:12 10° NNE
Cosmos 1934 Rocket 4.4 01:45:40 10° NNW 01:51:28 47° W 01:53:27 35° SW
Cosmos 1378 Rocket 3.4 01:53:20 63° SSE 01:53:56 79° E 01:58:16 10° NNE
Cosmos 1470 2.7 01:52:40 10° N 01:56:36 74° ENE 01:57:01 66° SE
Cosmos 371 Rocket 4.2 01:56:11 33° SE 01:57:13 36° ESE 02:01:41 10° NE
Meteor 2-10 3.9 01:54:50 10° NNW 02:00:11 82° W 02:01:41 48° S
Cosmos 2100 Rocket 4.3 01:57:14 10° N 02:03:31 62° ENE 02:06:59 28° SSE
YAOGAN 11 4.2 02:03:01 45° SE 02:04:09 67° ENE 02:08:26 10° N
Meteor 2-20 4.4 02:02:38 40° S 02:05:02 86° E 02:11:14 10° N
Meteor 1-21 4.4 02:03:15 40° SSE 02:05:22 69° E 02:11:07 10° NNE
Cosmos 1842 3.3 02:08:59 57° WSW 02:09:18 59° WNW 02:13:10 10° N
ISS -3.5 02:06:23 10° WNW 02:09:44 70° NNE 02:13:07 10° E
BREEZE-M DEB (TANK) 3.8 02:10:58 44° S 02:12:02 53° SE 02:23:25 10° ENE
CZ-4 R/B 4.1 02:08:19 10° NNE 02:13:05 56° E 02:14:25 41° SSE
Lacrosse 4 Rocket 3.0 02:14:12 23° ESE 02:14:51 23° ESE 02:18:23 10° ENE
Resurs 1-4 Rocket 3.4 02:14:16 10° NNE 02:18:57 31° E 02:21:24 21° SE
EO 1 Del DPAF 3.5 02:16:17 10° N 02:19:54 51° WNW 02:20:18 48° W
Okean 1 Rocket 3.2 02:16:31 10° NNW 02:20:49 56° W 02:21:27 50° SW
Cosmos 1400 Rocket 3.6 02:17:59 10° NNW 02:21:44 36° W 02:21:51 36° W
CZ-2D R/B 3.3 02:17:16 10° NNE 02:22:06 33° E 02:24:40 22° SE
APEX 4.3 02:18:27 10° NNW 02:22:53 59° ENE 02:27:34 14° SE
Cosmos 2263 Rocket 4.4 02:18:42 10° N 02:23:18 25° NE 02:27:55 10° E
Cosmos 2219 3.1 02:19:10 10° NNW 02:24:53 79° WSW 02:27:34 33° SSE
Cosmos 1674 Rocket 4.2 02:23:59 37° WSW 02:25:01 44° WNW 02:29:20 10° N
Cosmos 614 Rocket 3.9 02:22:55 10° NNW 02:28:03 89° WSW 02:30:18 35° SSE
Cosmos 1758 3.3 02:24:44 10° NNW 02:28:50 75° W 02:29:29 59° SSW
SeaSat 1 2.4 02:25:11 10° NNE 02:30:09 79° WNW 02:31:58 40° SW
MOZ.5/SAFIR/RUBIN 5/SL-8 3.8 02:28:24 37° SSE 02:30:14 78° ENE 02:34:54 10° NNW
Cosmos 1727 Rocket 4.1 02:29:01 35° SSW 02:31:48 69° W 02:38:11 10° N
Cosmos 1315 Rocket 2.7 02:28:00 10° NNW 02:32:02 85° W 02:32:50 57° S
Cosmos 1707 2.6 02:34:02 61° SW 02:34:33 73° W 02:38:24 10° N
SL-24 R/B 4.4 02:34:38 45° SW 02:35:20 50° W 02:39:28 10° NNW
Cosmos 1140 Rocket 4.1 02:31:00 10° NNW 02:36:08 54° ENE 02:40:44 13° SE
USA 276 2.2 02:36:06 68° NW 02:36:17 72° N 02:39:29 10° ENE
Lacrosse 5 2.6 02:33:25 15° W 02:37:33 50° NNW 02:42:31 10° NE
Cosmos 1932 4.5 02:37:39 31° SW 02:40:54 83° NW 02:47:17 10° NE
Helios 1A 3.2 02:43:31 46° SW 02:44:10 51° W 02:48:14 10° NNW
Cosmos 1908 3.5 02:41:42 10° N 02:45:35 63° ENE 02:47:01 36° SE
Cosmos 1544 Rocket 4.1 02:41:54 10° N 02:46:15 56° ENE 02:48:38 25° SSE
UNK 4.1 02:44:37 22° SE 02:47:25 60° ENE 02:51:56 10° N
USA 281 3.2 02:42:33 17° SSE 02:47:50 88° WSW 02:54:28 10° NNW
Cosmos 2251 Rocket 3.8 02:43:47 10° NNW 02:48:50 48° WSW 02:50:22 37° SSW
Meteor 2-11 Rocket 4.4 02:43:20 10° N 02:49:32 86° W 02:53:05 27° S
Cosmos 1697 Rocket 2.8 02:49:39 33° S 02:52:09 64° ESE 02:57:43 10° NNE
SL-16 R/B 2.6 02:48:44 18° SSE 02:53:31 81° ENE 02:59:48 10° NNW
USA 215 3.3 02:47:57 10° SE 02:54:21 58° SW 03:00:49 10° WNW
Cosmos 304 Rocket 3.9 02:52:37 36° S 02:54:28 65° ESE 02:59:15 10° NNE
Cosmos 1726 3.4 02:52:06 10° NNW 02:55:09 25° W 02:55:09 25° W
Cosmos 1459 Rocket 4.0 02:49:04 10° NNW 02:55:14 64° W 02:58:18 30° SSW
Cosmos 1455 Rocket 2.9 02:51:35 10° NNW 02:55:57 75° W 02:57:25 40° S
Cosmos 1725 Rocket 4.0 02:51:06 10° N 02:57:23 82° E 03:01:42 21° SSE
Meteor 1-16 Rocket 4.3 02:55:50 10° NNW 03:01:47 79° W 03:05:13 26° S
Cosmos 2233 Rocket 4.4 02:56:40 10° N 03:02:49 61° ENE 03:08:28 12° SSE
Cosmos 2360 4.4 03:00:05 30° S 03:02:55 66° ESE 03:08:38 10° NNE
COSMOS 2455 3.8 02:58:53 10° NW 03:03:49 27° WSW 03:04:51 25° SW
Cosmos 1980 Rocket 2.9 03:03:00 23° SSE 03:06:06 45° ESE 03:11:29 10° NE
Cosmos 1536 Rocket 4.5 03:06:17 21° SSE 03:08:52 43° E 03:13:05 10° NNE
Cosmos 2016 Rocket 3.9 03:03:13 10° NNW 03:09:27 73° W 03:13:14 25° S
Timation 1 Rocket 4.4 03:05:46 10° NW 03:11:36 56° WSW 03:15:18 22° S
Cosmos 1190 Rocket 4.0 03:06:37 10° NNW 03:11:54 87° ENE 03:16:28 14° SSE
Cosmos 1674 2.7 03:11:34 42° SW 03:12:41 66° W 03:16:30 10° N
Cosmos 2173 Rocket 4.4 03:09:04 10° NNW 03:14:55 46° W 03:18:01 26° SSW
IDEFIX/ARIANE 42P 4.4 03:10:59 10° NE 03:15:15 24° E 03:19:29 10° SE
Cosmos 2227 Rocket 2.8 03:12:20 10° NW 03:17:28 36° WSW 03:19:30 28° SSW
In-Cosmos 22 4.5 03:15:17 28° SW 03:18:03 54° WNW 03:23:24 10° N
Cosmos 1626 2.1 03:17:15 37° S 03:18:37 79° E 03:22:19 10° NNE
Cosmos 2297 Rocket 3.2 03:14:46 10° NW 03:19:29 28° WSW 03:20:55 25° SW
Meteor 2-5 Rocket 4.5 03:15:58 15° SSE 03:20:22 47° E 03:25:42 10° NNE
Aureole 2 Rocket 3.4 03:19:12 10° N 03:21:42 33° ENE 03:23:57 12° SE
GP-B 3.7 03:20:23 10° N 03:24:46 55° E 03:28:06 17° SSE
Cosmos 1953 2.9 03:21:19 10° NNW 03:25:04 39° W 03:26:10 32° SW
Cosmos 1656 4.4 03:21:56 21° WSW 03:25:15 43° NW 03:30:34 10° NNE
Cosmos 407 Rocket 3.8 03:26:06 10° NNW 03:31:17 51° WSW 03:34:38 21° S
Cosmos 2061 Rocket 4.3 03:25:44 10° NNW 03:31:54 54° W 03:36:03 21° SSW
Cosmos 1975 Rocket 4.0 03:31:24 24° WSW 03:33:09 34° WNW 03:37:08 10° N
Cosmos 2369 3.7 03:30:04 25° SSW 03:33:34 85° WNW 03:39:20 10° NNE
Cosmos 2278 4.0 03:30:07 22° S 03:33:49 64° ESE 03:39:28 10° NNE
Helios 1B rocket 2.5 03:29:54 10° N 03:34:00 65° WNW 03:36:01 28° SW
Cosmos 2082 3.9 03:29:48 10° NW 03:35:17 49° WSW 03:39:26 17° S
Cosmos 676 Rocket 4.0 03:31:11 10° NNW 03:36:29 87° ENE 03:41:47 10° SSE
Cosmos 371 Rocket 4.4 03:34:50 19° WSW 03:37:39 34° WNW 03:42:07 10° N
ADEOS II 2.3 03:34:09 10° NNE 03:39:25 69° ESE 03:43:26 17° S
Cosmos 2285 Rocket 4.1 03:34:58 20° SSW 03:39:33 77° ESE 03:46:00 10° NNE
ARGOS Delta rocket 3.8 03:35:56 10° N 03:40:41 86° WNW 03:44:02 21° SSW
Cosmos 332 Rocket 4.5 03:40:53 22° WSW 03:43:43 44° WNW 03:48:23 10° NNE
SL-16 R/B 3.8 03:40:51 10° SSE 03:45:33 28° ESE 03:50:17 10° NE
Cosmos 1025 Rocket 3.5 03:44:11 25° SW 03:46:24 46° WNW 03:50:40 10° N
ISS -3.1 03:43:21 10° W 03:46:25 32° SW 03:49:28 10° SSE
Meteor 1-29 2.8 03:43:22 10° NNE 03:46:47 80° WNW 03:48:31 27° SSW
Cosmos 1300 2.6 03:43:51 10° NNW 03:47:41 77° W 03:50:24 18° S
Cosmos 1624 Rocket 4.0 03:44:42 22° SSW 03:48:13 81° WNW 03:53:36 10° NNE
SL-14 R/B 3.3 03:47:32 25° SSW 03:49:45 71° W 03:53:45 10° N
Cosmos 2084 4.2 03:46:48 10° NW 03:51:11 59° NE 03:55:38 10° ESE
Lacrosse 4 Rocket 2.1 03:50:29 21° WSW 03:53:16 50° NW 03:57:34 10° NNE
CZ-4C R/B 3.6 03:53:46 10° SSE 03:57:59 75° ENE 04:02:00 10° N
Resurs 1-4 Rocket 2.8 03:53:56 10° N 03:58:53 42° WNW 04:02:29 18° SW
DELTA 2 DEB (DPAF) 4.2 03:56:45 13° S 04:00:42 63° WSW 04:05:10 10° NNW
Cosmos 1954 Rocket 4.1 03:55:52 10° NNW 04:01:04 60° WSW 04:06:16 10° S
Cosmos 1455 4.1 03:58:07 10° N 04:01:36 31° ENE 04:05:05 10° SE
CZ-2D R/B 2.8 03:57:12 10° N 04:02:15 42° WNW 04:05:59 17° SW
AQUA 4.2 03:58:44 10° N 04:03:22 52° WNW 04:06:44 18° SW
SeaSat 1 4.5 04:03:40 10° N 04:07:01 19° NW 04:10:20 10° W
Cosmos 2263 Rocket 2.1 04:02:11 10° NNW 04:07:50 75° WSW 04:13:29 10° SSE
Cosmos 1452 Rocket 4.1 04:03:03 11° S 04:07:56 55° ESE 04:13:07 10° NNE
Iridium 2 3.9 04:05:40 20° SSW 04:08:08 53° W 04:11:53 10° N
NPP 4.2 04:03:30 10° N 04:08:37 45° WNW 04:12:38 16° SW
Cosmos 405 2.9 04:06:12 10° NNW 04:09:41 66° W 04:12:56 11° S
Cosmos 2056 Rocket 3.8 04:06:52 18° SW 04:10:36 55° WNW 04:15:42 10° NNE
Cosmos 2322 Rocket 3.6 04:05:44 10° SSE 04:10:46 34° ESE 04:15:51 10° NE
Cosmos 1340 2.6 04:08:22 18° SSW 04:11:04 72° WNW 04:14:50 10° N
USA 276 2.1 04:09:27 10° WNW 04:12:38 85° NNE 04:15:50 10° ESE
Cosmos 292 Rocket 4.0 04:12:23 13° SSW 04:16:46 71° ESE 04:21:37 10° NNE
NOSS 3-2 (A) 4.1 04:13:46 10° S 04:18:57 45° ESE 04:24:59 10° NE
ADEOS Rocket 3.6 04:11:48 10° S 04:19:19 64° W 04:27:06 10° NNW
Cosmos 2228 3.0 04:16:22 10° NNW 04:20:39 69° W 04:24:56 10° S
Lacrosse 5 3.6 04:16:49 10° WNW 04:21:25 32° N 04:25:59 10° ENE
Meteor 1-28 Rocket 3.6 04:20:47 12° SSW 04:23:58 41° W 04:27:32 10° NNW
CZ-3B R/B 3.6 04:09:30 10° WSW 04:23:59 59° NNW 04:27:48 10° ENE
Cosmos 1346 Rocket 3.5 04:20:40 10° S 04:24:26 51° E 04:28:16 10° NNE
Spot 1 4.4 04:21:20 10° S 04:26:05 63° WSW 04:31:07 10° NNW
Cosmos 1850 Rocket 4.1 04:22:21 10° NNW 04:27:45 87° WSW 04:33:05 10° SSE
MSX 4.1 04:22:31 10° NNE 04:28:19 71° ESE 04:34:04 10° S
Cosmos 1726 Rocket 3.5 04:25:09 10° N 04:29:34 85° W 04:33:59 10° S
Cosmos 1606 Rocket 3.6 04:26:23 10° NNW 04:30:46 65° W 04:35:09 10° S
Cosmos 2360 Rocket 3.9 04:26:49 10° SSE 04:31:36 29° ESE 04:36:24 10° NE
Meteor 1-24 Rocket 3.8 04:27:15 11° SSW 04:32:24 59° WNW 04:37:41 10° N
BREEZE-M DEB (TANK) 4.3 04:28:43 10° WSW 04:34:04 88° SSE 04:55:53 10° E
Cosmos 2058 Rocket 3.5 04:29:35 10° N 04:34:06 68° ENE 04:38:36 10° SSE
USA 238 DEB 4.4 04:28:25 10° S 04:34:38 47° ESE 04:41:09 10° NE
USA 238 4.4 04:28:33 10° S 04:34:45 47° ESE 04:41:15 10° NE
IRS-1D 4.0 04:29:42 10° N 04:34:54 53° WNW 04:40:02 10° SW
Cosmos 1697 Rocket 4.1 04:31:48 10° WSW 04:36:33 28° NW 04:41:21 10° NNE
SL-16 R/B 3.9 04:33:49 11° SW 04:37:49 20° W 04:42:17 10° NW
Cosmos 1513 Rocket 4.5 04:31:53 10° NNW 04:38:02 68° W 04:44:04 10° S
Cosmos 1741 Rocket 4.0 04:34:50 10° NNW 04:40:03 73° WSW 04:45:15 10° SSE
Cosmos 389 Rocket 2.4 04:42:13 10° NNW 04:45:43 89° W 04:49:10 10° S
Cosmos 1464 Rocket 4.0 04:39:44 10° NNW 04:45:50 65° W 04:51:59 10° S
CENTAUR R/B 3.2 04:41:08 10° SSW 04:46:46 50° ESE 04:53:28 10° NE
CZ-2C R/B 4.5 04:45:52 10° NNE 04:49:35 34° E 04:53:16 10° SSE
ALOS 4.5 04:45:59 10° NE 04:49:49 25° E 04:53:38 10° SSE
Cosmos 1980 Rocket 3.1 04:45:01 10° WSW 04:50:14 37° NW 04:55:28 10° NNE
CZ-4B R/B 3.5 04:46:07 10° NNE 04:51:11 88° W 04:56:21 10° SSW
IRS-1C 4.2 04:47:56 10° NNE 04:53:17 74° WNW 04:58:36 10° SSW
Aureole 2 Rocket 4.0 04:52:43 10° W 04:53:19 11° W 04:53:55 10° WSW
USA 32 4.0 04:49:11 10° N 04:54:27 80° W 04:59:42 10° S
IDEFIX/ARIANE 42P 2.9 04:50:01 10° N 04:55:09 54° WNW 05:00:16 10° SW
ARIANE 5 R/B 2.5 04:51:12 10° NNE 04:56:21 83° WNW 05:01:25 10° SSW
CZ-2D R/B 3.8 04:53:25 10° NNE 04:57:53 80° ESE 05:02:19 10° SSW
Cosmos 2034 Rocket 4.1 04:51:40 10° NNW 04:58:00 73° W 05:04:15 10° S
